STARLINK-5717, 55618

Orbit data source: Space-Track

STARLINK-5717, 55618 is a payload satellite owned by SpaceX/Seattle (US) in LEO that was launched on Sun, 12 Feb 2023 UTC via an FALCON 9 launch vehicle from the Air Force Eastern Test Range (AFETR). Payload-class satellites include a variety of spacecraft equipped with specific instruments for various scientific and technological missions. These include communications satellites like Starlink; space stations such as the ISS; scientific satellites like the Hubble; Earth observation satellites from companies like Planet Labs, Umbra, and HawkEye 360; GPS; miniature CubeSats for education and research; and military/defense satellites.

Loading next visibility...
Identifier
55618, 2023-020BB
Orbit
LEO
Country
Flag of USUS
Related business
Manufacturer
SpaceX/Seattle
Mission
Operational Commercial Communications
Bus & Motor
STARLINK, Unknown motor
Mass
305 kg wet, ~290 kg dry
Launch date (UTC)
2023-02-12 (4 years ago)
Launch vehicle
FALCON 9
Launch site
Air Force Eastern Test Range (AFETR)
Object type
Payload
Rocket body
Debris
Shape & HBR
Box + 1 Pan, 10.1 m
Radar Cross Section
13.562 m², Large (>1 m²)

Expand to show TLE details & history
Last TLE update: 6 hours ago

TLE from 6 hours ago
0 STARLINK-5717
1 55618U 23020BB  26264.21313962  .00000352  00000-0  22311-4 0  9992
2 55618  43.0041 329.8850 0001500 270.9132  89.1548 15.27586402198940
Epoch: 2026-09-21T05:06Z
TLE epoch observation values (Epoch: 2026-09-21T05:06:55.263Z)
Latitude
0.00001°
Longitude
-106.94145°
Altitude
482.791 km
Speed
7.626 km/s
True Right ascension
21h 59m 32s
True Declination
0° 00' 00"
Sunlit
Object was in full shadow at epoch
Visualization orbit readout
Latitude
Unknown
Longitude
Unknown
Altitude
Unknown
Speed
Unknown
Apparent Right ascension
Unknown
Apparent Declination
Unknown
Sunlit
N/A
Visualization observer readout
Local Sidereal Time
04:02:53
Azimuth
Unknown
Elevation
Unknown
Doppler factor
Unknown
Orbital elements
Apogee altitude
486.004 km
Perigee altitude
483.945 km
Semi-major axis
6,863.111 km
Eccentricity
0.00015
Inclination
43.0041°
RAAN
329.885°
Arg. of periapsis
270.9132°
True anomaly
89.17199°
Mean anomaly
89.1548°
Eccentric anomaly
89.16339°
Mean motion
3.81735 °/min
Orbital period
94.31 mins
BSTAR
0.000022311
Loading maneuver chart data...
Computing Atmospheric mass density...
Loading historical data...
Loading historical data...
Loading historical data...
Loading historical data...
Loading historical data...
Loading historical data...
Loading historical data...

Documentation

Showing up to 5 results
|